Flag Weather past 2 weeks in Limburg an der Lahn, Hesse, Germany

Now
32 °F

Low clouds.


Feels Like: 19 °F
Forecast: 33 / 40 °F
Wind: 23 mph from Southeast

Location: Hessen

Current Time: Nov 26, 2014 at 12:29:00 PM

Latest Report: Nov 26, 2014 at 11:50 AM


Visibility: 4 mi

Pressure: 29.98 "Hg

Humidity: 100%

Dew point: 32 °F

Location of Limburg an der LahnLocation

Historic Weather in Limburg an der Lahn — Graph

°F

Limburg an der Lahn temperature yesterday

Maximum temperature yesterday: 39 °F (at 11:50 AM)
Minimum temperature yesterday: 34 °F (at 7:50 AM)
Average temperature yesterday: 36 °F

Past Weeks' High & Low Weather Summary

 TemperatureHumidityPressure
High55 °F (Nov 12, 11:20 AM)100% (Nov 11, 11:20 AM)30.30 "Hg (Nov 11, 11:20 AM)
Low30 °F (Nov 26, 7:50 AM)72% (Nov 12, 11:20 AM)29.50 "Hg (Nov 16, 7:50 AM)
Average42 °F98%29.93 "Hg
* Reported Nov 11 11:20 AM — Nov 26 11:20 AM, Limburg an der Lahn, Weather by CustomWeather, © 2014

Note: Actual official high and low records may vary slightly from our data, if they occured in-between our weather recording intervals... More about our weather records

Advertising

Limburg an der Lahn weather history for previous 24 hours

 ConditionsComfort  
Time TempWeatherWind HumidityBarometerVisibility
11:20 AM
Nov 26
32 °FLow clouds.26 mph93%29.98 "Hg4 mi
10:50 AM32 °FLow clouds.24 mph93%29.98 "Hg4 mi
10:20 AM32 °FIce fog.24 mph93%30.01 "Hg3 mi
9:50 AM30 °FIce fog.26 mph100%30.01 "Hg3 mi
9:20 AM30 °FIce fog.25 mph100%30.01 "Hg2 mi
8:50 AM30 °FPartly sunny.26 mph100%30.01 "Hg2 mi
8:20 AM30 °FIce fog.25 mph100%30.01 "Hg2 mi
7:50 AM30 °FIce fog.24 mph100%30.01 "Hg2 mi
8:50 PM
Nov 25
34 °FPassing clouds.21 mph100%30.12 "Hg4 mi
8:20 PM34 °FPassing clouds.21 mph100%30.12 "Hg6 mi
7:50 PM34 °FPassing clouds.21 mph100%30.12 "HgN/A
7:20 PM34 °FClear.22 mph100%30.15 "Hg10 mi
6:50 PM34 °FClear.20 mph100%30.15 "Hg10 mi
6:20 PM36 °FClear.18 mph93%30.15 "Hg10 mi
5:50 PM36 °FClear.18 mph93%30.15 "Hg10 mi
5:20 PM36 °FClear.14 mph93%30.15 "Hg10 mi
4:50 PM36 °FClear.10 mph93%30.15 "Hg10 mi
4:20 PM37 °FSunny.9 mph87%30.15 "Hg10 mi
3:50 PM37 °FSunny.9 mph87%30.18 "Hg10 mi
3:20 PM39 °FSunny.10 mph81%30.18 "Hg10 mi
2:50 PM39 °FSunny.15 mph81%30.18 "Hg10 mi
2:20 PM39 °FSunny.12 mph81%30.18 "Hg10 mi
1:50 PM39 °FPassing clouds.12 mph81%30.18 "HgN/A
1:20 PM39 °FSunny.17 mph81%30.21 "Hg10 mi
12:50 PM39 °FSunny.16 mph81%30.21 "Hg10 mi
12:20 PM39 °FSunny.17 mph87%30.21 "Hg10 mi
Weather by CustomWeather, © 2014

See weather overviewHow to use our weather pages